Sant Julià de Vilatorta





Hora UTC 04:25
Temperatura 11.6 ºC
Humedad 99.1 %
Presión 1016.2 hPa
Pluja 0.1 mm
Velocidad viento 0.0 km/h
Dirección viento SSW
Radiación solar 1.6 W/m²

Datos diarios 2020-05-30



Hora UTC (invierno +1h; verano +2h)
Temperatura (ºC) Humedad (%) Presión (hPa) Velocidad viento (km/h) Precipitación (mm) Radiación solar (W/m²)
Hora UTC Aire Humedad Presión Vel. Dir. Vel. Max Dir. Intent. máx 5 min. Rad. Sol.
00:05 11.9 98.8 1016.2 0.0 SSE 0.0 SE 0.0 0.0
00:10 12.0 98.8 1016.2 0.0 ESE 0.0 SE 0.0 0.0
00:15 12.1 98.8 1016.3 0.0 WNW 0.0 WNW 0.0 0.0
00:20 12.1 98.8 1016.3 0.0 NE 0.0 ESE 0.0 0.0
00:25 12.2 98.8 1016.3 0.0 ESE 0.0 SW 0.0 0.0
00:30 12.2 98.8 1016.4 0.0 S 0.0 SE 0.0 0.0
00:35 12.2 98.8 1016.3 0.0 ESE 0.0 SE 0.0 0.0
00:40 12.3 98.8 1016.3 0.0 ENE 0.0 ENE 0.0 0.0
00:45 12.4 98.8 1016.3 0.0 E 0.0 E 0.0 0.0
00:50 12.4 98.8 1016.2 0.0 SE 0.0 E 0.0 0.0
00:55 12.3 98.8 1016.2 0.0 SSE 0.0 SSW 0.0 0.0
01:00 12.2 98.8 1016.2 0.0 SE 0.0 SE 0.0 0.0
01:05 12.1 98.8 1016.3 0.0 S 0.0 SSE 0.0 0.0
01:10 11.8 98.8 1016.3 0.0 SSE 0.0 SE 0.0 0.0
01:15 11.4 98.8 1016.3 0.0 SSE 0.0 SSE 0.0 0.0
01:20 11.3 98.8 1016.3 0.0 S 0.0 S 0.0 0.0
01:25 11.3 98.8 1016.4 0.0 SSE 0.0 SSW 0.0 0.0
01:30 11.2 98.8 1016.4 0.0 SSE 0.0 SSE 0.0 0.0
01:35 11.2 98.8 1016.4 0.0 SSE 0.0 ESE 0.0 0.1
01:40 11.2 98.8 1016.4 0.0 SE 0.0 E 0.0 0.2
01:45 11.3 98.9 1016.4 0.0 SSE 0.0 SSE 0.0 0.0
01:50 11.4 98.9 1016.4 0.0 SSE 0.0 SE 0.0 0.0
01:55 11.5 98.9 1016.4 0.0 SSE 0.0 SSE 0.0 0.0
02:00 11.4 98.9 1016.4 0.0 SE 0.0 SE 0.0 0.0
02:05 11.3 98.9 1016.4 0.0 SE 0.0 SSE 0.0 0.0
02:10 11.3 98.9 1016.4 0.0 SSE 0.0 SSE 0.0 0.0
02:15 11.3 98.9 1016.4 0.0 SSE 0.0 SE 0.0 0.0
02:20 11.3 98.9 1016.4 0.0 SSE 0.0 SE 0.0 0.0
02:25 11.5 98.9 1016.4 0.0 SSE 0.0 SSE 0.0 0.0
02:30 11.4 98.9 1016.4 0.0 SE 0.0 SE 0.0 0.0
02:35 11.5 98.9 1016.3 0.0 SE 0.0 SSE 0.0 0.0
02:40 11.5 99.0 1016.3 0.0 ESE 0.0 SE 0.0 0.0
02:45 11.5 99.0 1016.3 0.0 E 0.0 ENE 0.1 0.0
02:50 11.4 99.0 1016.4 0.0 S 0.0 SSE 0.0 0.0
02:55 11.4 99.0 1016.4 0.0 SSE 0.0 SSE 0.0 0.0
03:00 11.3 99.0 1016.3 0.0 SSE 0.0 ESE 0.0 0.0
03:05 11.2 99.0 1016.3 0.0 E 0.0 NE 0.0 0.0
03:10 11.1 99.0 1016.2 0.0 ENE 0.0 ENE 0.0 0.0
03:15 11.0 99.1 1016.2 0.0 E 0.0 ENE 0.0 0.0
03:20 11.0 99.1 1016.2 0.0 ESE 0.0 ESE 0.0 0.0
03:25 11.0 99.1 1016.2 0.0 NE 0.0 NE 0.0 0.0
03:30 11.0 99.1 1016.3 0.0 SE 0.0 NNE 0.0 0.1
03:35 11.0 99.1 1016.3 0.0 SE 0.0 SE 0.0 0.0
03:40 11.0 99.1 1016.2 0.0 SE 0.0 SSE 0.0 0.0
03:45 11.1 99.1 1016.3 0.0 SSE 0.0 SSE 0.0 0.0
03:50 11.3 99.1 1016.3 0.0 SE 0.0 SE 0.0 0.0
03:55 11.3 99.1 1016.3 0.0 SE 0.0 SE 0.0 0.0
04:00 11.4 99.1 1016.3 0.0 SSE 0.0 SE 0.0 0.0
04:05 11.4 99.1 1016.2 0.0 SE 0.0 SSE 0.0 0.2
04:10 11.4 99.1 1016.2 0.0 S 0.0 S 0.0 0.5
04:15 11.6 99.1 1016.2 0.0 S 0.0 SSE 0.0 1.0
04:20 11.6 99.1 1016.2 0.0 S 0.0 SSE 0.0 1.3
04:25 11.6 99.1 1016.2 0.0 SSW 0.0 SW 0.0 1.6
Máxima 12.4 99.1 1016.4 0.0 SSW 0.0 SW 0.1 1.6
Mínima 10.9 98.8 1016.2
Total 0.1